[[{"header":{"parameterUnit":"m.s-1","parameterCategory":1,"la1":30.2991,"la2":30.254,"lo1":-89.0895,"lo2":-89.0444,"dy":0.0017,"dx":0.0017,"nx":28,"ny":28,"refTime":"2025-03-25T21:00:00:Z","depth":0,"parameterNumber":2,"parameterNumberName":"U-component_of_WINDS"},"data":[0,0,0,0,0,0,0,0,0,0,0,0,0,0,0,0,0,0,0,0,0,0,0,0,0,0,0,0,0,0,0,0,0,0,0,0,0,0,0,0,0,0,0,0,0,0,0,0,0,0,0,0,0,0,0,0,0,0,-0.7138,-0.7138,0,-0.7083,-0.7082,-0.7082,-0.7052,-0.7052,-0.7052,-0.7052,-0.6993,-0.6992,-0.699,0,0,0,0,0,0,0,0,0,0,0,0,0,-0.7218,-0.7217,-0.7138,-0.7138,-0.7137,-0.7083,-0.7082,-0.7082,-0.7052,-0.7052,-0.7052,-0.7052,-0.6994,-0.6992,-0.699,0,0,0,0,0,0,0,0,0,0,0,0,0,-0.7175,-0.7216,-0.7138,-0.7116,-0.7113,-0.7083,-0.7082,-0.7081,-0.7052,-0.7052,-0.7052,-0.7052,-0.6994,-0.6992,-0.699,-0.6977,0,0,-0.6983,-0.6982,0,0,0,0,0,0,0,0,-0.7178,-0.7172,-0.712,-0.7117,-0.7114,-0.7074,-0.7089,-0.7046,-0.7052,-0.7075,-0.7052,-0.7052,-0.702,-0.7016,-0.7005,-0.6975,-0.6972,-0.6983,-0.6981,-0.698,-0.698,0,0,0,0,0,0,0,-0.7181,-0.7174,-0.7116,-0.7119,-0.7116,-0.7108,-0.7102,-0.7081,-0.7049,-0.7073,-0.7071,-0.7065,-0.7019,-0.7008,-0.7004,-0.6971,-0.6983,-0.6981,-0.6979,-0.6978,-0.6931,-0.6931,0,0,0,0,0,0,-0.7187,-0.7177,-0.7118,-0.7115,-0.7147,-0.7107,-0.71,-0.7087,-0.7049,-0.7043,-0.7065,-0.7064,-0.7012,-0.7006,-0.7002,-0.6986,-0.698,-0.6978,-0.6977,-0.6931,-0.6931,-0.6931,0,0,0,0,0,0,-0.7189,-0.7182,-0.712,-0.7145,-0.7137,-0.7106,-0.7092,-0.7086,-0.7075,-0.7043,-0.7037,-0.706,-0.7011,-0.7005,-0.6985,-0.6984,-0.6977,-0.6975,-0.6931,-0.6931,-0.6931,-0.6955,0,0,0,0,0,0,-0.7192,-0.7183,-0.7178,-0.7145,-0.7136,-0.7104,-0.7092,-0.7085,-0.7072,-0.707,-0.7036,-0.7031,-0.7011,-0.6988,-0.6982,-0.6981,-0.6973,-0.6931,-0.6931,-0.6931,-0.6954,-0.6956,-0.6958,0,0,0,0,0,-0.7195,-0.7186,-0.7178,-0.7171,-0.7128,-0.7104,-0.7098,-0.7076,-0.7072,-0.7067,-0.7046,-0.7032,-0.6985,-0.6986,-0.6979,-0.6977,-0.693,-0.6931,-0.6931,-0.6953,-0.6956,-0.6958,0,0,0,0,0,0,-0.7217,-0.7181,-0.7172,-0.7152,-0.7132,-0.7099,-0.7091,-0.7079,-0.7059,-0.7057,-0.703,-0.7023,-0.7006,-0.6989,-0.6991,-0.6965,-0.6956,-0.6955,-0.6976,-0.6978,-0.698,-0.6984,-0.6971,0,0,0,0,0,-0.722,-0.7204,-0.7173,-0.7158,-0.7149,-0.7122,-0.7111,-0.7096,-0.7073,-0.7064,-0.7042,-0.702,-0.7001,-0.6988,-0.6969,-0.6952,-0.6945,-0.6948,-0.6949,-0.6951,-0.695,-0.6942,-0.6944,-0.6932,-0.6932,-0.6932,0,0,-0.7225,-0.7204,-0.7194,-0.7163,-0.7145,-0.7129,-0.7115,-0.7098,-0.7086,-0.7061,-0.7041,-0.7025,-0.6999,-0.6981,-0.6972,-0.6967,-0.6952,-0.6951,-0.6953,-0.6951,-0.6943,-0.6944,-0.6945,-0.6932,-0.6932,-0.6932,0,0,-0.7227,-0.7209,-0.7196,-0.7179,-0.7154,-0.7137,-0.7134,-0.7104,-0.7093,-0.7073,-0.7055,-0.704,-0.7007,-0.699,-0.6977,-0.6977,-0.6963,-0.6971,-0.698,-0.6973,-0.6973,-0.6974,-0.6975,-0.6976,-0.697,-0.697,-0.697,0,-0.7236,-0.7212,-0.719,-0.7175,-0.7163,-0.7142,-0.7129,-0.7114,-0.7083,-0.7075,-0.707,-0.703,-0.7011,-0.699,-0.6991,-0.698,-0.6977,-0.6974,-0.6975,-0.6976,-0.6976,-0.6977,-0.6977,-0.6972,-0.6971,-0.6971,-0.6971,0,-0.7226,-0.7209,-0.7202,-0.7175,-0.7161,-0.7147,-0.7124,-0.7113,-0.7101,-0.7085,-0.7066,-0.7043,-0.7019,-0.7014,-0.7,-0.6992,-0.699,-0.698,-0.6971,-0.6979,-0.6979,-0.6979,-0.6973,-0.6973,-0.6973,-0.6972,0,0,-0.7237,-0.7201,-0.7199,-0.7187,-0.7159,-0.7146,-0.7132,-0.7111,-0.7103,-0.7083,-0.7071,-0.7045,-0.7038,-0.7023,-0.7008,-0.7002,-0.7006,-0.6994,-0.6993,-0.6998,-0.6997,-0.7004,-0.7005,-0.6997,-0.6997,-0.6997,-0.6999,0,-0.7235,-0.721,-0.7192,-0.7174,-0.7159,-0.7141,-0.713,-0.7112,-0.7097,-0.7083,-0.7066,-0.7049,-0.704,-0.7031,-0.7025,-0.7007,-0.7005,-0.7006,-0.6986,-0.6986,-0.6993,-0.7004,-0.7011,-0.7014,-0.6999,-0.6999,-0.6999,0,-0.7228,-0.7212,-0.7192,-0.7169,-0.7162,-0.7152,-0.7133,-0.7119,-0.7099,-0.7089,-0.7075,-0.706,-0.7046,-0.704,-0.702,-0.7022,-0.7013,-0.7003,-0.7003,-0.7,-0.6993,-0.7002,-0.7015,-0.7015,-0.6999,-0.6999,-0.6999,0,-0.724,-0.7212,-0.7198,-0.7189,-0.716,-0.7154,-0.7142,-0.7122,-0.7112,-0.7095,-0.7088,-0.7069,-0.7059,-0.7045,-0.7026,-0.7023,-0.7009,-0.7001,-0.7001,-0.7002,-0.6998,-0.6998,-0.701,-0.6993,-0.6993,-0.6993,-0.6993,0,-0.7239,-0.7229,-0.7203,-0.7194,-0.7183,-0.7163,-0.7152,-0.7138,-0.7122,-0.711,-0.7094,-0.7083,-0.7059,-0.7047,-0.7032,-0.7019,-0.7014,-0.7006,-0.7002,-0.7008,-0.7009,-0.7001,-0.7,-0.6993,-0.6993,-0.6993,-0.6993,0,-0.725,-0.7232,-0.7216,-0.7192,-0.7186,-0.7178,-0.7158,-0.7149,-0.7135,-0.7121,-0.7117,-0.7094,-0.7079,-0.7059,-0.7037,-0.7027,-0.7016,-0.701,-0.7023,-0.7021,-0.7023,-0.7023,-0.7029,-0.703,-0.7013,-0.7013,-0.7013,0,-0.725,-0.7242,-0.7218,-0.721,-0.7199,-0.7186,-0.7176,-0.7157,-0.7148,-0.7126,-0.7121,-0.7104,-0.709,-0.7066,-0.7048,-0.7032,-0.7025,-0.7029,-0.7022,-0.7029,-0.7026,-0.7027,-0.7027,-0.703,-0.703,-0.703,-0.7031,0,-0.7254,-0.7246,-0.7233,-0.7217,-0.7206,-0.7192,-0.7178,-0.7172,-0.7151,-0.7141,-0.7126,-0.7115,-0.7094,-0.7079,-0.7061,-0.7048,-0.7036,-0.7033,-0.7033,-0.7038,-0.7046,-0.7043,-0.7028,-0.7033,-0.7032,-0.7032,-0.7032,-0.7032,-0.7259,-0.7252,-0.7235,-0.7221,-0.721,-0.7197,-0.7189,-0.7175,-0.7162,-0.7145,-0.7135,-0.712,-0.7103,-0.7078,-0.7067,-0.7056,-0.7051,-0.705,-0.7049,-0.7049,-0.7052,-0.7049,-0.7052,-0.7052,-0.7052,-0.7052,-0.7052,0,-0.7262,-0.7252,-0.7239,-0.7221,-0.7211,-0.7203,-0.7187,-0.7179,-0.7167,-0.7153,-0.714,-0.7124,-0.711,-0.7092,-0.7077,-0.7072,-0.7066,-0.7068,-0.7068,-0.7066,-0.7056,-0.7059,-0.7073,-0.7073,-0.7073,-0.7073,-0.7073,-0.7073,-0.7263,-0.7251,-0.7243,-0.7226,-0.7215,-0.7201,-0.7194,-0.7183,-0.7172,-0.7155,-0.7144,-0.7133,-0.7118,-0.7102,-0.7089,-0.7084,-0.708,-0.7084,-0.7077,-0.7068,-0.7066,-0.7064,-0.7067,-0.7083,-0.7083,-0.7088,-0.7088,-0.7088]},{"header":{"parameterUnit":"m.s-1","parameterCategory":1,"la1":30.2991,"la2":30.254,"lo1":-89.0895,"lo2":-89.0444,"dy":0.0017,"dx":0.0017,"nx":28,"ny":28,"refTime":"2025-03-25T21:00:00:Z","depth":0,"parameterNumber":3,"parameterNumberName":"V-component_of_WINDS"},"data":[0,0,0,0,0,0,0,0,0,0,0,0,0,0,0,0,0,0,0,0,0,0,0,0,0,0,0,0,0,0,0,0,0,0,0,0,0,0,0,0,0,0,0,0,0,0,0,0,0,0,0,0,0,0,0,0,0,0,2.2825,2.2825,0,2.2814,2.2814,2.2814,2.2815,2.2816,2.2816,2.2816,2.2802,2.2802,2.2801,0,0,0,0,0,0,0,0,0,0,0,0,0,2.2846,2.2845,2.2825,2.2825,2.2825,2.2814,2.2814,2.2814,2.2815,2.2816,2.2816,2.2816,2.2803,2.2802,2.2801,0,0,0,0,0,0,0,0,0,0,0,0,0,2.2836,2.2845,2.2825,2.2825,2.2824,2.2814,2.2814,2.2814,2.2815,2.2816,2.2816,2.2816,2.2803,2.2802,2.2801,2.279,0,0,2.2799,2.2798,0,0,0,0,0,0,0,0,2.2836,2.2835,2.2825,2.2825,2.2824,2.2816,2.2816,2.2806,2.2815,2.2819,2.2816,2.2816,2.2807,2.2806,2.2803,2.279,2.2789,2.2799,2.2798,2.2798,2.2798,0,0,0,0,0,0,0,2.2837,2.2836,2.2821,2.2825,2.2824,2.2824,2.2823,2.2814,2.2811,2.2818,2.2819,2.2817,2.2807,2.2804,2.2802,2.2789,2.2799,2.2798,2.2797,2.2797,2.2764,2.2764,0,0,0,0,0,0,2.2838,2.2836,2.2821,2.282,2.2831,2.2823,2.2822,2.2819,2.2811,2.281,2.2817,2.2817,2.2805,2.2803,2.2802,2.2788,2.2798,2.2797,2.2797,2.2765,2.2764,2.2764,0,0,0,0,0,0,2.2839,2.2837,2.2821,2.2828,2.2826,2.2823,2.2819,2.2818,2.2815,2.281,2.2809,2.2815,2.2805,2.2803,2.2793,2.2787,2.2797,2.2796,2.2765,2.2765,2.2764,2.2759,0,0,0,0,0,0,2.2839,2.2837,2.2833,2.2828,2.2826,2.2813,2.2818,2.2818,2.2814,2.2814,2.2808,2.2807,2.2805,2.2794,2.2792,2.2786,2.2795,2.2766,2.2765,2.2764,2.276,2.2759,2.2757,0,0,0,0,0,2.284,2.2832,2.2833,2.2831,2.2821,2.2813,2.2812,2.281,2.2814,2.2809,2.2806,2.2807,2.2788,2.2793,2.2791,2.2785,2.2766,2.2765,2.2764,2.276,2.2759,2.2757,0,0,0,0,0,0,2.2836,2.2832,2.2833,2.2823,2.2819,2.2813,2.2808,2.2809,2.2803,2.2803,2.2801,2.28,2.2789,2.2786,2.2791,2.2773,2.2777,2.2776,2.2775,2.2774,2.2772,2.2773,2.2795,0,0,0,0,0,2.2835,2.2829,2.2825,2.2817,2.2815,2.2812,2.2808,2.2808,2.2802,2.28,2.2796,2.279,2.2783,2.2778,2.2771,2.276,2.2757,2.2754,2.2753,2.2752,2.275,2.2742,2.2741,2.2761,2.2761,2.2761,0,0,2.2831,2.2827,2.2824,2.2816,2.2812,2.2806,2.281,2.2803,2.2798,2.2799,2.2789,2.2786,2.2779,2.2768,2.2762,2.2765,2.2744,2.2751,2.275,2.2749,2.2741,2.2739,2.2738,2.276,2.2761,2.2761,0,0,2.282,2.2817,2.281,2.2806,2.2801,2.2799,2.2797,2.2792,2.279,2.278,2.278,2.2774,2.2761,2.2756,2.2752,2.2739,2.2739,2.2736,2.273,2.2722,2.272,2.2719,2.2713,2.2711,2.2735,2.2735,2.2735,0,2.2815,2.2806,2.2806,2.2799,2.2795,2.2796,2.2788,2.2784,2.2776,2.2773,2.2776,2.276,2.2756,2.2742,2.2739,2.2736,2.2733,2.2737,2.2721,2.2719,2.2718,2.2712,2.271,2.2735,2.2735,2.2735,2.2735,0,2.28,2.2794,2.2788,2.2781,2.2777,2.2769,2.2767,2.2762,2.2762,2.2759,2.2748,2.2743,2.2735,2.2732,2.2731,2.2718,2.2719,2.2722,2.2726,2.2716,2.271,2.2708,2.2734,2.2735,2.2735,2.2735,0,0,2.2787,2.278,2.2777,2.2774,2.2768,2.2762,2.2754,2.2746,2.2742,2.2736,2.2728,2.2718,2.272,2.2715,2.2714,2.2707,2.2695,2.271,2.271,2.2706,2.2679,2.2676,2.2674,2.2696,2.2695,2.2695,2.2679,0,2.2775,2.2761,2.276,2.2747,2.2741,2.2742,2.2734,2.2729,2.2726,2.2719,2.2716,2.2708,2.2712,2.2709,2.2702,2.2698,2.2689,2.2699,2.2687,2.2687,2.2688,2.2671,2.2669,2.2654,2.2677,2.2677,2.2676,0,2.2759,2.2753,2.274,2.2734,2.2731,2.2724,2.2717,2.2711,2.2704,2.2703,2.2697,2.2697,2.2687,2.2692,2.2678,2.2685,2.268,2.2677,2.2676,2.2674,2.268,2.2668,2.265,2.2647,2.2673,2.2673,2.2674,0,2.2749,2.2738,2.2728,2.2725,2.2718,2.2714,2.271,2.2704,2.27,2.2693,2.2689,2.2681,2.2676,2.2669,2.2666,2.2671,2.2652,2.2657,2.2649,2.2649,2.2644,2.2644,2.2624,2.2642,2.2642,2.2643,2.2643,0,2.2735,2.2726,2.2724,2.2718,2.2708,2.2706,2.2696,2.2693,2.2688,2.268,2.2681,2.2673,2.267,2.2662,2.2659,2.2647,2.2645,2.2643,2.2642,2.2642,2.2642,2.2638,2.2638,2.2642,2.2642,2.2642,2.2642,0,2.2722,2.272,2.2709,2.2704,2.2702,2.2695,2.2689,2.2683,2.268,2.2671,2.2668,2.2664,2.2654,2.265,2.2638,2.2637,2.2622,2.2623,2.2624,2.2624,2.2615,2.2616,2.259,2.2586,2.2609,2.2609,2.2609,0,2.2713,2.2706,2.27,2.2695,2.2692,2.2684,2.2679,2.2678,2.2672,2.2664,2.2658,2.2649,2.2641,2.2625,2.262,2.261,2.261,2.2602,2.2609,2.2608,2.2608,2.2608,2.2607,2.26,2.26,2.26,2.26,0,2.2696,2.2695,2.2688,2.2681,2.2675,2.2669,2.2663,2.2659,2.2656,2.265,2.264,2.2634,2.2622,2.2612,2.2602,2.2598,2.2597,2.2598,2.2595,2.2595,2.2595,2.2593,2.262,2.2598,2.2598,2.2598,2.2598,2.2599,2.2684,2.2677,2.2672,2.2664,2.266,2.2654,2.2647,2.2644,2.2636,2.2626,2.2626,2.2615,2.2607,2.2594,2.2589,2.258,2.2582,2.2578,2.2577,2.2576,2.2575,2.2598,2.2578,2.2578,2.2578,2.2578,2.2578,0,2.2666,2.2662,2.2655,2.2647,2.2641,2.2642,2.2635,2.2629,2.262,2.2614,2.2606,2.2595,2.2585,2.2579,2.2568,2.2562,2.2561,2.2559,2.2559,2.2558,2.2574,2.2577,2.256,2.256,2.256,2.256,2.256,2.256,2.2656,2.2645,2.2644,2.263,2.2627,2.2617,2.2612,2.2607,2.2601,2.2589,2.2581,2.2577,2.257,2.2559,2.255,2.2548,2.2544,2.2541,2.2539,2.2555,2.2557,2.2558,2.2561,2.254,2.254,2.2523,2.2523,2.2523]}]]